Location: Bonn
(50.7330°N, 7.1000°E)
Time: 00:29:11
(UTC+02:00)

Cosmos 1933 Rocket - Visible Passes

Search period start: 24 May 2017 00:00
Search period end: 03 June 2017 00:00
Orbit: 607 x 630 km, 82.5° (Epoch: 22 May)

Date Brightness Start Highest point End Pass type
(mag) Time Alt. Az. Time Alt. Az. Time Alt. Az.
24 May 6.3 04:03:43 10° ESE 04:06:07 14° E 04:08:31 10° NE visible
25 May 5.8 04:19:32 10° SE 04:23:05 24° E 04:26:39 10° NE visible
26 May 5.0 04:36:01 10° SSE 04:40:09 39° E 04:44:19 10° NNE visible
28 May 6.2 03:34:46 10° ESE 03:37:17 15° E 03:39:47 10° NE visible
29 May 5.7 03:50:40 10° SE 03:54:16 24° E 03:57:52 10° NNE visible
30 May 4.8 04:07:10 10° SSE 04:11:20 40° E 04:15:31 10° NNE visible
31 May 3.9 04:24:04 10° S 04:28:29 70° E 04:32:57 10° NNE visible
01 Jun 6.1 03:05:50 10° ESE 03:08:26 15° E 03:11:02 10° NE visible
02 Jun 5.5 03:21:48 10° SE 03:25:26 25° E 03:29:04 10° NNE visible
